Temp
12 13 12 12 12 12 12 12 12 12 12 12 12 11 12 11 11 11 9 9 8 7 8 7 7 6 6 6 6 6 6 6 6 6 6 6 6 6 6 5 5 4 4
12 12 12 12 12 12 12 12 12 12 12 12 12 11 11 11 11 10 10 9 9 8 8 8 7 7 6 5 6 6 6 6 5 5 5 5 6 6 5 5 4 4 4
12 12 12 12 12 12 12 12 12 12 12 12 12 11 11 11 11 10 11 10 10 10 9 8 8 7 7 6 6 6 6 7 6 5 5 6 5 5 4 4 4 4 4
12 12 11 11 11 12 11 12 12 12 12 12 12 11 11 11 11 11 10 10 10 10 10 9 8 8 7 6 6 6 7 7 6 5 5 5 4 4 4 3 3 3 3
12 12 11 11 11 12 11 11 11 11 11 12 11 11 11 11 10 10 10 10 10 10 9 9 8 7 7 6 6 7 6 5 5 5 5 5 4 4 3 3 3 2 2
11 12 12 12 12 11 11 11 11 11 11 11 11 11 10 11 10 10 10 10 10 9 9 9 8 8 8 7 7 6 5 5 4 4 4 4 4 3 3 3 2 2 2
11 11 11 11 12 11 11 11 11 11 11 11 10 10 10 10 10 10 10 10 10 9 9 9 9 8 8 8 7 7 7 5 4 4 3 3 3 3 3 2 2 2 2
11 11 11 11 11 11 11 11 11 11 11 11 10 10 9 10 10 10 10 10 10 10 9 9 9 8 8 8 7 7 6 6 5 4 4 3 3 2 2 2 2 2 1
11 11 11 11 12 11 11 12 11 11 11 11 10 10 10 10 10 11 11 10 10 10 9 9 8 8 8 8 7 7 6 6 5 5 4 3 2 2 1 1 0 0 0
10 11 11 12 10 10 11 11 11 11 11 11 10 10 10 10 10 9 10 10 10 10 9 9 8 8 8 8 7 7 6 6 5 5 4 3 3 2 2 1 1 0 0
10 10 11 10 9 10 10 11 11 11 11 11 11 10 10 9 9 9 8 9 9 9 9 8 8 8 8 7 7 6 6 5 5 4 4 4 3 2 2 2 2 1 1
10 10 10 10 9 10 11 11 10 10 10 10 10 10 9 9 9 9 8 9 9 9 9 8 8 7 7 7 7 6 6 5 4 4 3 3 3 3 2 2 2 2 1
10 10 11 10 10 10 11 11 11 11 11 11 10 10 10 9 9 8 7 8 8 9 8 8 7 7 7 7 6 5 5 4 4 3 3 3 3 3 2 2 2 1 1
10 10 10 10 10 11 11 11 11 11 11 11 10 10 9 9 9 9 8 7 7 8 7 7 7 7 7 6 5 4 3 3 2 2 2 2 2 2 2 2 2 1 1
10 10 10 10 10 11 11 11 11 12 11 11 10 9 10 9 9 9 8 8 7 7 6 7 6 6 6 5 4 3 3 2 2 2 1 1 1 1 1 1 1 1 1
10 10 10 11 11 11 11 11 11 11 11 10 10 10 10 9 9 9 8 8 8 7 6 5 5 4 4 4 3 3 2 2 2 1 1 1 1 1 1 1 0 0 0
9 10 10 10 11 11 11 11 11 11 11 10 10 10 10 9 9 8 8 8 8 7 6 5 4 4 3 3 3 2 2 1 1 1 1 1 1 1 1 1 0 -0 -1
11 11 11 10 10 10 10 11 12 12 11 10 9 9 10 10 9 8 8 8 7 6 5 5 4 3 3 2 2 1 1 1 1 1 1 1 1 1 1 1 0 -0 -0
13 12 12 11 11 11 11 11 10 10 10 10 9 10 9 9 9 9 8 7 7 5 4 4 3 3 2 1 1 0 1 1 1 1 1 2 1 1 1 0 0 -0 -1
14 14 13 13 12 12 11 11 10 10 10 10 9 10 9 9 8 8 8 7 5 4 3 3 2 2 1 -0 0 -0 0 0 1 1 1 1 1 1 1 0 -0 -1 -2
13 13 12 12 12 11 11 11 11 10 9 9 9 9 9 9 8 8 7 6 4 3 3 2 1 1 -1 -1 -1 -1 -1 -0 0 1 1 1 1 -0 -0 -0 -1 -2 -3
13 12 11 11 11 11 11 11 9 9 9 9 9 9 8 8 8 7 5 4 3 2 2 1 0 -1 -2 -1 -1 -1 -1 -2 -3 -2 -1 -0 -1 -1 -2 -2 -2 -4 -5
11 11 10 10 11 10 10 10 10 9 9 9 9 9 8 7 6 5 3 3 2 1 0 -0 -1 -2 -1 -2 -1 -2 -2 -3 -4 -3 -3 -4 -3 -3 -5 -5 -4 -5 -6
10 10 10 9 9 10 9 9 9 9 9 9 8 8 7 6 4 3 3 2 0 -0 -1 -2 -2 -2 -2 -2 -2 -3 -3 -4 -4 -3 -4 -6 -5 -4 -6 -5 -5 -6 -6
9 9 9 9 9 9 9 9 8 8 8 7 6 6 5 4 3 2 1 0 -1 -2 -2 -3 -2 -2 -2 -3 -3 -4 -5 -5 -5 -5 -5 -7 -6 -6 -5 -5 -6 -6 -6
9 9 9 9 8 8 8 8 8 7 6 5 4 3 2 2 2 0 -1 -2 -2 -3 -3 -3 -3 -4 -4 -4 -5 -5 -4 -5 -7 -7 -7 -8 -9 -10 -9 -7 -8 -8 -6
Height
1550 1554 1560 1562 1569 1574 1577 1578 1580 1583 1586 1588 1590 1590 1591 1592 1592 1593 1594 1595 1595 1597 1596 1597 1597 1598 1597 1598 1598 1598 1598 1598 1598 1598 1597 1596 1596 1597 1596 1596 1595 1594 1593
1549 1555 1559 1564 1569 1573 1578 1578 1579 1583 1587 1588 1589 1590 1591 1592 1592 1592 1594 1595 1596 1596 1597 1597 1597 1598 1599 1599 1599 1598 1598 1598 1597 1597 1597 1596 1596 1597 1597 1596 1595 1594 1593
1550 1556 1559 1565 1569 1572 1577 1577 1578 1582 1586 1586 1588 1590 1591 1592 1593 1593 1594 1594 1595 1595 1596 1597 1598 1598 1599 1599 1599 1598 1598 1597 1597 1597 1597 1597 1596 1596 1596 1596 1595 1593 1592
1552 1555 1561 1566 1569 1572 1575 1576 1578 1581 1585 1585 1587 1589 1590 1591 1592 1593 1593 1594 1595 1595 1595 1596 1598 1599 1599 1600 1599 1597 1597 1596 1596 1596 1596 1596 1597 1597 1595 1595 1594 1592 1591
1551 1556 1560 1565 1568 1572 1574 1576 1577 1581 1583 1584 1584 1586 1588 1590 1591 1592 1593 1593 1593 1595 1594 1595 1596 1597 1598 1598 1598 1597 1595 1594 1595 1594 1594 1594 1596 1596 1595 1594 1592 1591 1589
1550 1554 1559 1563 1566 1570 1573 1575 1576 1579 1581 1582 1584 1584 1586 1587 1589 1589 1591 1591 1592 1592 1593 1593 1594 1594 1595 1595 1595 1595 1595 1594 1593 1592 1592 1591 1592 1593 1592 1591 1589 1588 1586
1549 1553 1557 1560 1563 1567 1570 1573 1574 1577 1578 1579 1581 1582 1583 1584 1585 1586 1586 1587 1588 1588 1591 1591 1592 1592 1593 1592 1592 1592 1593 1593 1593 1591 1590 1590 1588 1589 1588 1586 1585 1583 1581
1547 1552 1555 1558 1561 1564 1567 1569 1571 1572 1574 1576 1577 1579 1581 1582 1581 1582 1582 1582 1583 1584 1586 1587 1588 1588 1588 1588 1589 1589 1589 1589 1589 1590 1589 1587 1585 1584 1583 1581 1580 1578 1576
1544 1548 1553 1556 1559 1562 1565 1566 1567 1570 1571 1573 1574 1576 1576 1576 1577 1577 1578 1578 1578 1580 1581 1583 1584 1584 1584 1583 1584 1584 1583 1584 1583 1584 1584 1584 1582 1580 1579 1577 1575 1573 1570
1541 1546 1549 1550 1558 1561 1562 1563 1564 1566 1567 1568 1570 1571 1571 1572 1573 1574 1574 1573 1574 1575 1577 1578 1579 1579 1579 1579 1578 1578 1578 1578 1578 1578 1578 1578 1578 1576 1574 1572 1571 1569 1566
1537 1542 1545 1550 1553 1556 1559 1558 1560 1560 1563 1563 1564 1567 1567 1567 1566 1569 1568 1567 1569 1570 1571 1572 1573 1574 1573 1573 1572 1571 1571 1571 1571 1571 1571 1570 1570 1570 1570 1567 1565 1563 1561
1531 1536 1541 1545 1548 1553 1554 1555 1556 1555 1556 1558 1558 1560 1560 1561 1558 1561 1561 1562 1563 1564 1565 1565 1565 1566 1566 1565 1564 1564 1565 1565 1564 1563 1563 1562 1561 1561 1561 1561 1560 1556 1555
1522 1529 1534 1538 1542 1543 1546 1549 1550 1550 1549 1551 1552 1552 1553 1551 1552 1551 1554 1555 1556 1556 1558 1558 1558 1559 1559 1559 1558 1556 1557 1557 1557 1556 1555 1553 1552 1551 1551 1550 1549 1549 1548
1518 1523 1527 1532 1534 1537 1538 1542 1543 1542 1541 1543 1544 1545 1544 1542 1544 1545 1547 1549 1549 1549 1550 1550 1550 1551 1551 1551 1550 1550 1551 1550 1548 1547 1546 1545 1544 1543 1542 1541 1540 1538 1537
1512 1515 1519 1524 1527 1528 1530 1532 1532 1533 1534 1535 1535 1537 1534 1536 1536 1537 1539 1540 1541 1540 1541 1542 1544 1544 1543 1543 1543 1544 1543 1542 1541 1539 1537 1537 1536 1535 1533 1532 1530 1528 1526
1505 1507 1511 1514 1517 1519 1520 1522 1522 1524 1525 1525 1525 1526 1527 1528 1528 1528 1530 1531 1533 1534 1534 1534 1536 1537 1537 1537 1538 1536 1535 1533 1532 1531 1530 1529 1527 1525 1523 1521 1519 1517 1515
1494 1496 1499 1503 1506 1508 1510 1511 1513 1516 1515 1516 1515 1515 1516 1517 1518 1520 1521 1522 1523 1524 1525 1524 1526 1528 1530 1530 1529 1528 1527 1524 1523 1522 1521 1520 1518 1516 1514 1511 1508 1505 1503
1484 1487 1491 1494 1497 1499 1501 1502 1502 1503 1503 1505 1505 1505 1505 1506 1509 1511 1512 1512 1514 1516 1516 1518 1519 1521 1521 1522 1520 1520 1520 1517 1516 1515 1514 1512 1510 1508 1505 1501 1498 1494 1490
1474 1477 1481 1483 1486 1489 1491 1492 1492 1493 1493 1494 1496 1496 1496 1497 1499 1501 1502 1503 1504 1505 1506 1509 1510 1512 1514 1513 1511 1511 1511 1510 1509 1508 1506 1504 1501 1497 1494 1490 1487 1482 1478
1462 1465 1470 1472 1475 1478 1479 1481 1483 1482 1481 1484 1485 1487 1488 1488 1489 1491 1492 1493 1495 1496 1499 1500 1504 1502 1504 1504 1503 1503 1503 1501 1501 1500 1497 1495 1491 1488 1484 1480 1475 1471 1466
1453 1454 1458 1461 1464 1465 1466 1468 1470 1472 1472 1473 1474 1474 1475 1478 1479 1480 1483 1485 1486 1489 1491 1493 1496 1495 1497 1497 1496 1495 1494 1493 1492 1490 1487 1485 1480 1478 1474 1470 1465 1459 1455
1443 1445 1446 1449 1450 1452 1454 1456 1457 1460 1461 1462 1463 1465 1466 1467 1470 1472 1474 1477 1480 1483 1484 1486 1488 1489 1489 1489 1488 1487 1486 1484 1482 1480 1476 1474 1471 1468 1463 1459 1455 1450 1446
1432 1433 1435 1438 1438 1441 1443 1446 1448 1450 1450 1452 1455 1456 1456 1458 1460 1463 1467 1469 1473 1475 1478 1480 1481 1482 1482 1482 1481 1481 1479 1477 1475 1473 1469 1463 1463 1458 1455 1450 1446 1442 1437
1422 1423 1424 1427 1428 1430 1433 1436 1439 1439 1442 1443 1444 1446 1447 1449 1452 1458 1459 1464 1466 1469 1472 1474 1474 1475 1475 1475 1474 1473 1471 1469 1466 1466 1464 1455 1455 1450 1445 1441 1437 1434 1431
1415 1417 1417 1418 1420 1422 1425 1427 1429 1430 1432 1434 1436 1438 1440 1443 1447 1452 1456 1458 1461 1463 1464 1466 1468 1468 1468 1467 1466 1465 1463 1462 1459 1459 1457 1451 1447 1441 1437 1433 1430 1428 1426
1410 1412 1413 1413 1414 1415 1417 1418 1420 1422 1424 1427 1430 1433 1436 1437 1443 1448 1452 1455 1456 1458 1459 1460 1461 1461 1462 1461 1460 1458 1457 1456 1455 1451 1450 1447 1442 1440 1430 1427 1426 1424 1419
Wind_Speed
36 33 31 28 27 25 23 22 18 18 16 15 14 12 12 11 11 11 10 9 8 9 6 4 3 3 6 6 7 7 8 10 11 11 12 14 15 15 15 13 12 12 13
35 33 31 29 27 24 23 21 17 14 14 15 14 13 11 10 9 9 8 7 6 8 7 3 1 2 3 1 3 5 7 9 9 11 12 13 14 14 14 13 13 12 13
32 32 30 29 26 23 21 22 19 15 14 15 13 13 11 8 7 6 5 6 4 4 6 6 4 4 6 8 8 5 9 11 10 10 11 12 12 12 13 13 13 13 13
35 31 30 29 26 22 22 21 18 17 15 13 13 12 10 8 6 5 5 4 4 3 3 5 7 6 10 9 9 8 11 13 12 11 11 11 11 12 13 13 13 12 12
34 33 30 28 26 22 21 19 16 16 17 15 13 10 10 10 9 7 5 4 5 5 5 4 6 8 9 10 10 10 11 13 14 13 12 12 12 12 12 12 13 12 12
36 33 29 27 24 22 22 18 16 16 14 12 11 10 11 13 13 11 10 9 8 7 7 6 7 9 9 10 11 10 9 11 13 15 16 14 14 15 14 14 13 13 13
37 33 29 26 24 23 21 18 18 17 15 14 12 13 13 15 17 16 15 14 14 12 11 10 9 10 12 10 11 11 12 11 13 17 19 20 18 19 18 17 16 16 15
40 35 30 27 24 24 24 24 21 18 17 16 17 15 11 16 22 21 19 19 18 17 17 15 14 12 13 14 14 13 12 12 13 14 18 22 23 23 23 22 20 20 18
40 35 32 26 23 26 25 19 20 20 18 17 19 17 7 10 10 14 16 18 17 18 21 19 18 15 15 16 17 17 15 15 16 17 17 22 24 25 25 24 23 21 21
38 34 33 30 29 28 25 18 15 18 19 20 22 25 25 24 14 9 13 15 13 13 15 19 18 17 18 20 20 20 20 20 21 22 22 21 23 26 28 28 26 25 24
40 41 38 37 31 28 26 17 19 20 20 23 23 27 29 30 33 29 20 21 21 18 18 18 20 21 20 22 22 22 28 27 26 24 28 28 27 27 28 31 31 30 29
43 44 41 35 39 33 27 22 20 19 19 23 24 28 32 30 30 31 31 28 26 22 21 21 21 23 21 24 24 24 28 29 26 27 31 31 32 33 34 31 32 34 34
48 47 45 41 43 39 32 29 27 25 25 27 27 30 34 34 33 37 31 28 27 26 24 25 23 23 23 24 26 27 27 27 30 31 30 30 32 34 35 38 38 38 36
50 46 49 48 47 51 45 43 40 37 32 33 33 33 33 30 35 36 35 31 26 28 29 29 27 24 23 22 23 23 24 28 26 28 29 29 29 31 33 34 37 39 41
53 52 50 50 47 49 49 49 49 45 39 38 35 32 30 34 35 31 28 31 31 26 27 29 24 24 23 22 23 25 27 26 29 27 27 28 29 30 32 34 36 38 38
59 56 54 53 54 52 52 50 44 44 42 42 40 41 42 41 35 31 28 30 31 32 27 23 22 23 22 22 25 26 26 28 27 25 25 27 29 31 32 34 36 39 42
55 56 56 55 53 50 44 41 42 44 45 45 45 41 39 41 36 30 30 32 33 32 31 30 25 24 24 25 27 26 29 29 27 24 24 25 27 29 31 34 36 38 42
46 47 46 46 44 43 40 43 47 48 44 42 34 40 40 38 34 32 32 34 34 33 30 28 26 25 24 25 24 25 26 26 24 23 24 27 30 32 34 36 38 40 43
40 44 43 43 44 43 45 50 48 44 43 40 40 32 31 38 34 36 35 34 35 35 30 27 25 24 25 25 25 24 22 24 24 24 26 28 30 30 31 32 34 37 39
43 47 46 48 48 46 50 49 47 42 43 46 38 35 44 39 39 38 32 35 36 31 27 24 25 24 24 22 21 22 23 24 24 24 27 27 28 30 32 33 36 38 38
47 51 47 47 48 51 51 49 48 47 51 41 34 41 42 39 39 33 33 35 31 28 26 25 25 22 20 21 20 22 24 25 26 25 25 27 33 34 34 34 36 37 35
49 51 49 47 47 47 47 44 45 42 44 46 42 40 38 38 33 33 30 27 24 25 25 24 23 20 19 21 21 22 24 24 19 25 28 33 33 34 34 34 35 31 29
41 45 47 48 49 48 46 43 43 39 40 34 34 38 36 33 32 30 25 26 26 26 24 23 20 18 19 21 21 22 23 23 23 26 31 33 30 32 28 31 32 25 23
34 35 35 35 35 37 37 36 33 33 33 36 35 35 32 30 27 24 25 26 25 24 21 19 16 18 19 20 21 21 23 23 26 27 27 28 27 32 30 33 31 20 18
26 29 30 33 35 36 32 30 30 32 36 32 30 28 26 24 24 26 25 24 22 20 17 14 17 19 19 19 20 20 20 23 25 24 26 23 25 32 37 32 19 18 20
25 27 29 29 30 30 29 27 26 28 29 28 26 25 23 24 23 24 21 18 16 14 13 15 16 17 16 16 17 18 23 24 22 24 17 25 26 20 20 25 14 22 20
Wind_Direction
166 166 170 169 171 169 166 161 156 146 152 149 143 135 124 113 104 107 122 113 119 134 117 78 43 56 93 79 53 38 28 21 21 20 26 28 26 21 16 13 11 7 2
169 168 167 170 170 168 167 165 157 154 157 155 155 150 141 129 121 118 115 123 121 126 147 149 196 318 323 301 29 13 4 357 359 6 9 13 11 8 3 359 355 352 351
176 172 171 173 172 169 175 170 167 166 163 158 162 165 160 147 138 126 129 139 131 131 151 173 224 240 257 283 311 339 342 347 341 344 349 352 355 356 353 349 348 343 341
182 178 177 177 176 177 179 175 177 177 176 167 167 176 181 181 175 177 169 162 171 170 175 187 200 228 257 268 295 320 327 328 331 332 328 337 341 343 345 341 339 338 336
186 185 182 180 179 184 185 182 178 189 184 181 179 190 203 211 218 217 213 211 206 220 216 214 222 225 250 265 271 300 311 308 315 319 322 322 323 324 329 329 332 333 336
193 190 188 187 186 190 190 189 190 183 187 185 196 207 221 229 230 234 236 236 240 238 242 242 240 243 246 249 268 281 281 283 295 303 310 306 306 307 313 313 319 322 325
200 196 195 192 196 199 200 202 198 201 197 202 214 226 235 237 243 245 244 248 251 251 254 249 251 249 252 257 266 273 280 261 265 286 289 296 296 294 294 302 305 306 310
202 200 199 199 202 203 207 212 210 210 209 217 225 233 242 255 252 252 252 254 255 254 257 253 251 257 257 263 268 269 277 277 269 261 269 271 276 279 279 288 293 295 297
202 201 202 200 213 216 218 224 223 226 232 233 237 231 224 232 259 257 253 254 258 262 261 257 252 259 272 271 269 268 271 276 279 279 267 259 259 262 264 266 271 275 281
201 204 205 202 221 226 229 227 235 243 245 248 248 249 247 253 256 264 259 279 256 258 266 260 255 262 269 271 268 270 275 277 279 280 277 272 261 266 263 262 264 269 271
203 211 219 228 237 234 237 233 241 247 255 252 257 265 258 257 258 254 266 256 260 273 278 270 263 264 266 268 272 270 274 267 270 274 279 276 272 265 265 267 270 267 269
206 215 222 233 227 228 235 244 251 256 262 265 267 267 264 260 262 262 256 257 261 269 277 270 260 261 265 266 262 266 266 262 260 267 270 267 264 265 263 264 269 274 276
209 216 224 224 226 233 241 254 261 263 264 269 274 273 272 267 266 267 261 264 263 267 271 273 265 267 275 279 270 267 260 255 263 272 265 266 266 265 264 266 265 266 269
216 218 225 227 229 240 249 255 262 261 267 275 276 272 278 267 265 265 257 254 262 261 266 265 266 268 271 276 274 256 262 272 278 273 269 268 268 269 268 267 268 269 269
225 221 225 230 237 244 252 255 258 256 264 272 275 266 265 255 264 260 255 260 257 253 259 264 264 259 259 260 265 268 280 282 284 277 271 269 270 271 272 272 271 270 268
227 230 232 235 241 251 247 256 253 251 260 272 273 268 259 256 262 253 255 261 255 259 258 267 256 253 248 258 269 281 277 282 283 278 275 276 276 277 278 277 275 272 271
230 236 239 240 243 246 246 246 246 252 265 272 262 262 262 254 258 252 255 255 254 256 257 257 253 254 256 263 270 277 281 282 282 280 281 281 282 283 283 283 281 278 275
235 237 240 242 244 244 246 247 249 256 261 269 269 266 264 256 252 249 252 253 253 253 251 251 252 253 261 265 269 272 282 279 279 282 286 288 290 291 289 288 286 284 282
241 241 242 243 243 244 248 251 255 260 264 269 276 278 275 260 249 250 250 248 249 245 246 250 250 258 266 271 278 276 271 274 281 286 290 291 293 295 296 299 297 294 292
240 244 242 244 249 252 254 256 261 257 258 266 264 268 261 252 251 255 247 249 245 242 243 245 253 262 268 272 275 276 281 287 289 292 296 300 302 303 306 308 306 301 297
244 251 250 253 254 256 259 262 264 261 259 264 258 259 252 248 247 247 247 248 240 237 239 246 253 263 266 275 275 282 290 292 296 302 303 308 310 310 311 309 308 305 300
251 254 255 256 259 261 261 264 267 271 266 258 253 248 245 244 243 243 239 231 233 239 242 244 255 260 274 274 282 287 294 300 307 307 309 309 311 314 313 312 312 308 304
257 257 259 259 259 261 262 259 265 268 262 250 248 245 239 237 234 232 221 226 230 231 238 249 253 268 271 277 285 290 295 297 299 307 310 307 313 310 309 308 314 308 306
257 258 259 261 260 260 262 263 256 249 245 244 241 241 232 230 227 224 222 226 226 234 241 250 269 272 278 281 286 291 295 299 304 309 310 301 312 310 311 312 316 310 304
265 261 263 260 259 261 255 256 247 240 237 234 227 223 223 219 216 222 223 225 230 237 251 268 270 273 277 281 288 292 302 303 303 304 308 299 313 310 312 316 317 315 314
260 256 257 255 253 250 244 244 239 228 222 216 208 201 204 208 214 214 219 225 241 258 266 265 267 272 279 285 288 298 296 296 297 308 299 306 305 315 315 316 303 309 310